Date,TemperatureHighF,TemperatureAvgF,TemperatureLowF,DewpointHighF,DewpointAvgF,DewpointLowF,HumidityHigh,HumidityAvg,HumidityLow,PressureMaxIn,PressureMinIn,WindSpeedMaxMPH,WindSpeedAvgMPH,GustSpeedMaxMPH,PrecipitationSumIn
2013-2-1,57.0,43.8,31.3,34.0,26.5,14.0,68,52,31,30.38,30.15,7,2,16,0.00
2013-2-2,48.6,38.1,25.9,42.0,30.3,13.0,98,74,47,30.41,30.10,7,1,12,0.00
2013-2-3,58.1,46.6,37.3,41.0,35.3,31.0,90,67,40,30.09,29.91,11,1,13,0.00
2013-2-4,48.3,38.6,27.3,39.0,33.1,26.0,96,82,58,30.18,30.04,6,1,10,0.00
2013-2-5,68.5,50.9,34.0,50.0,42.5,33.0,99,77,34,30.08,29.96,6,1,10,0.00
2013-2-6,68.6,53.1,43.0,52.0,47.5,42.0,98,83,48,30.22,30.03,5,1,8,0.00
2013-2-7,55.5,52.2,47.4,54.0,51.1,47.0,99,96,89,30.21,29.75,10,4,25,0.92
2013-2-8,64.6,54.8,47.2,54.0,49.6,46.0,99,84,60,30.05,29.68,7,1,14,0.07
2013-2-9,60.1,44.5,31.7,47.0,33.6,26.0,96,70,29,30.37,30.06,6,1,10,0.00
2013-2-10,57.0,46.8,31.0,55.0,42.2,30.0,99,85,64,30.45,30.23,14,2,18,0.00
2013-2-11,66.2,60.5,54.3,64.0,59.7,53.0,99,96,90,30.27,30.05,7,1,12,0.90
2013-2-12,60.8,55.9,47.4,59.0,54.4,46.0,99,95,76,30.14,29.94,4,1,5,1.04
2013-2-13,68.8,55.9,46.1,64.0,53.3,45.0,99,91,70,29.94,29.69,11,2,15,0.50
2013-2-14,51.5,46.4,38.5,49.0,41.2,37.0,97,83,62,30.10,29.85,8,1,8,0.00
2013-2-15,56.1,43.5,32.1,47.0,38.6,32.0,99,85,49,30.12,29.98,5,0,9,0.00
2013-2-16,55.0,40.4,32.3,46.0,38.2,31.0,99,92,66,30.00,29.81,7,1,15,0.14
2013-2-17,44.7,32.9,24.3,31.0,23.1,15.0,97,72,31,30.32,30.01,5,1,13,0.00
2013-2-18,50.4,35.9,23.8,33.0,27.5,22.0,95,75,38,30.46,30.31,8,1,10,0.00
2013-2-19,64.3,48.9,30.5,56.0,46.1,29.0,99,91,61,30.30,29.99,7,1,14,0.10
2013-2-20,54.4,45.3,32.7,49.0,36.3,26.0,98,74,34,30.17,30.04,7,1,11,0.01
2013-2-21,52.9,42.1,33.8,43.0,35.0,27.0,98,79,43,30.23,30.12,10,1,13,0.00
2013-2-22,52.1,49.4,46.0,51.0,46.3,40.0,98,89,73,30.26,30.07,17,4,22,0.12
2013-2-23,52.1,46.8,43.1,52.0,46.6,43.0,100,99,98,30.07,29.80,5,0,6,0.96
2013-2-24,66.6,51.9,42.3,53.0,48.4,42.0,100,89,47,30.02,29.74,4,1,8,0.02
2013-2-25,48.2,44.2,40.8,45.0,41.0,37.0,99,88,77,30.14,29.99,17,4,21,0.07
2013-2-26,69.8,59.2,46.3,67.0,57.8,45.0,100,95,82,30.03,29.61,13,3,22,0.78
2013-2-27,60.2,52.8,47.5,55.0,44.4,39.0,96,74,54,29.89,29.70,7,1,12,0.00
2013-2-28,59.2,49.2,37.4,43.0,38.0,33.0,91,68,40,29.89,29.78,7,1,15,0.00